BOX742 EDDP-OOMS

Flight info

Callsign BOX742
Flight time N/A
Altitude 39000
Route GOLAT2N GOLAT T202 TABAT M736 NIKUS/N0474F410 M736 RUDNO DCT LAMSI DCT LIDSI DCT RADLY DCT PODET DCT KUSIB DCT TAZ DCT PETAK DCT DIMIS DCT SALUN N705 BOPIX N710 TAKRI P751 LXR M999 JDW V31 BSH L425 AMBIT DCT ASTIN DCT GOBRO L425 DEDSO R401 HAI B400 VUTAP B424 GISKA Y414 MCT
Aircraft B77L/H-SDE1E2E3FGHIJ2J3J4J5M1RWXYZ/LB1D1

Departure

Time 2026-05-04 07:29
Airport Leipzig/Halle Airport (EDDP)

Arrival

Time N/A
Airport Muscat International Airport (OOMS)
Time Latitude Longitude Altitude Speed Heading
2026-05-04 06:58 51.40855 12.24827 478 ft 0 kts 85°
2026-05-04 07:22 51.40848 12.24670 479 ft 3 kts 85°
2026-05-04 07:22 51.40848 12.24660 479 ft 1 kts 85°
2026-05-04 07:23 51.40847 12.24649 479 ft 2 kts 85°
2026-05-04 07:23 51.40846 12.24621 479 ft 3 kts 85°
2026-05-04 07:23 51.40844 12.24589 479 ft 3 kts 85°
2026-05-04 07:23 51.40845 12.24607 479 ft 3 kts 84°
2026-05-04 07:24 51.40852 12.24632 479 ft 2 kts 58°
2026-05-04 07:24 51.40859 12.24651 479 ft 2 kts 58°
2026-05-04 07:24 51.40868 12.24665 479 ft 2 kts 24°
2026-05-04 07:24 51.40877 12.24666 479 ft 0 kts 355°
2026-05-04 07:26 51.41044 12.24645 479 ft 21 kts 356°
2026-05-04 07:27 51.41099 12.24728 479 ft 11 kts 89°
2026-05-04 07:27 51.41104 12.24889 479 ft 19 kts 86°
2026-05-04 07:27 51.41119 12.25111 479 ft 20 kts 84°
2026-05-04 07:27 51.41133 12.25325 479 ft 19 kts 85°
2026-05-04 07:28 51.41143 12.25529 479 ft 18 kts 85°
2026-05-04 07:28 51.41209 12.25612 479 ft 16 kts
2026-05-04 07:28 51.41332 12.25611 479 ft 17 kts 354°
2026-05-04 07:28 51.41424 12.25563 479 ft 6 kts 291°
2026-05-04 07:29 51.41405 12.25427 479 ft 36 kts 255°
2026-05-04 07:29 51.41345 12.24501 479 ft 129 kts 265°
2026-05-04 07:29 51.41266 12.22732 863 ft 172 kts 265°
2026-05-04 07:29 51.41187 12.20842 2097 ft 164 kts 265°
2026-05-04 07:30 51.41111 12.19076 3254 ft 158 kts 265°
2026-05-04 07:30 51.41029 12.17252 3916 ft 172 kts 266°
2026-05-04 07:30 51.40933 12.15226 4416 ft 195 kts 266°
2026-05-04 07:30 51.40821 12.12899 4905 ft 224 kts 265°
2026-05-04 07:31 51.40437 12.10372 5539 ft 246 kts 244°
2026-05-04 07:31 51.39296 12.08277 6616 ft 253 kts 222°
2026-05-04 07:33 51.26920 11.99485 13486 ft 324 kts 204°
2026-05-04 07:33 51.24796 11.98081 14447 ft 337 kts 204°
2026-05-04 07:33 51.22588 11.96622 15451 ft 348 kts 204°
2026-05-04 07:33 51.20321 11.95126 16500 ft 356 kts 204°
2026-05-04 07:34 51.18013 11.93603 17536 ft 364 kts 204°
2026-05-04 07:34 51.15650 11.92046 18573 ft 371 kts 204°
2026-05-04 07:34 51.13249 11.90464 19598 ft 376 kts 205°
2026-05-04 07:34 51.10812 11.88861 20626 ft 381 kts 205°
2026-05-04 07:35 51.08337 11.87234 21599 ft 387 kts 205°
2026-05-04 07:35 51.05829 11.85588 22556 ft 393 kts 205°
2026-05-04 07:35 51.03290 11.83923 23496 ft 398 kts 205°
2026-05-04 07:35 51.00718 11.82239 24398 ft 402 kts 205°
2026-05-04 07:36 50.98115 11.80536 25324 ft 406 kts 204°
2026-05-04 07:36 50.95487 11.78819 26216 ft 410 kts 204°
2026-05-04 07:38 50.75636 11.76140 31401 ft 465 kts 147°
2026-05-04 07:38 50.73331 11.79801 31975 ft 479 kts 131°
2026-05-04 07:38 50.71408 11.84097 32666 ft 476 kts 131°
2026-05-04 07:38 50.69285 11.88055 33364 ft 472 kts 138°
2026-05-04 07:39 50.66902 11.91556 34112 ft 465 kts 144°
2026-05-04 07:39 50.64335 11.94593 34760 ft 463 kts 148°
2026-05-04 07:39 50.61691 11.97507 35312 ft 463 kts 149°
2026-05-04 07:39 50.59924 11.99388 35692 ft 462 kts 150°
2026-05-04 07:40 50.57243 12.02174 36200 ft 463 kts 150°
2026-05-04 07:40 50.54496 12.04972 36755 ft 463 kts 151°
2026-05-04 07:40 50.51831 12.07675 37260 ft 463 kts 151°
2026-05-04 07:40 50.49087 12.10457 37744 ft 463 kts 151°
2026-05-04 07:41 50.46417 12.13164 38226 ft 462 kts 151°
2026-05-04 07:41 50.43684 12.15932 38720 ft 462 kts 151°
2026-05-04 07:41 50.40979 12.18670 39023 ft 464 kts 151°
2026-05-04 07:41 50.38267 12.21412 39053 ft 464 kts 151°
2026-05-04 07:42 50.32863 12.26866 39049 ft 463 kts 151°
2026-05-04 07:42 50.27419 12.32346 39049 ft 465 kts 151°
2026-05-04 07:43 50.21971 12.37814 39049 ft 466 kts 151°
2026-05-04 07:43 50.16522 12.43270 39049 ft 465 kts 151°
2026-05-04 07:44 50.11067 12.48715 39048 ft 465 kts 151°
2026-05-04 07:44 50.05620 12.54138 39048 ft 465 kts 151°
2026-05-04 07:45 50.00182 12.59538 39047 ft 465 kts 151°
2026-05-04 07:45 49.94669 12.64996 39045 ft 465 kts 150°
2026-05-04 07:46 49.89245 12.70353 39043 ft 466 kts 150°
2026-05-04 07:46 49.83779 12.75736 39040 ft 466 kts 150°
2026-05-04 07:47 49.78319 12.81099 39038 ft 468 kts 150°
2026-05-04 07:49 49.56119 13.02754 39027 ft 471 kts 150°
2026-05-04 07:49 49.50578 13.08124 39027 ft 470 kts 150°
2026-05-04 07:50 49.44999 13.13514 39195 ft 475 kts 150°
2026-05-04 07:50 49.42182 13.16230 39599 ft 474 kts 150°
2026-05-04 07:50 49.39396 13.18913 40024 ft 474 kts 150°
2026-05-04 07:51 49.36595 13.21606 40400 ft 474 kts 150°
2026-05-04 07:51 49.33843 13.24249 40705 ft 475 kts 150°
2026-05-04 07:51 49.30993 13.26982 40988 ft 477 kts 150°
2026-05-04 07:51 49.28188 13.29668 41027 ft 477 kts 150°
2026-05-04 07:52 49.22597 13.35012 41029 ft 477 kts 150°
2026-05-04 07:52 49.16920 13.40423 41030 ft 477 kts 150°
2026-05-04 07:54 48.94372 13.61770 41037 ft 477 kts 150°
2026-05-04 07:55 48.88724 13.67080 41039 ft 477 kts 150°
2026-05-04 07:55 48.83065 13.72388 41041 ft 478 kts 150°
2026-05-04 07:56 48.77416 13.77671 41043 ft 478 kts 150°
2026-05-04 07:56 48.71748 13.82958 41045 ft 478 kts 150°
2026-05-04 07:57 48.66085 13.88227 41046 ft 478 kts 150°
2026-05-04 07:57 48.60416 13.93486 41048 ft 478 kts 150°
2026-05-04 07:58 48.54741 13.98737 41050 ft 479 kts 150°
2026-05-04 07:58 48.49057 14.03983 41051 ft 479 kts 150°
2026-05-04 07:59 48.43377 14.09211 41052 ft 479 kts 150°
2026-05-04 07:59 48.37686 14.14435 41052 ft 479 kts 150°
2026-05-04 08:00 48.31995 14.19646 41053 ft 479 kts 150°
2026-05-04 08:02 48.09195 14.40383 41054 ft 479 kts 150°
2026-05-04 08:02 48.03485 14.45543 41059 ft 479 kts 150°
2026-05-04 08:03 47.97776 14.50688 41063 ft 480 kts 150°
2026-05-04 08:03 47.92055 14.55830 41068 ft 481 kts 150°
2026-05-04 08:04 47.86321 14.60971 41075 ft 481 kts 150°
2026-05-04 08:04 47.80577 14.66107 41082 ft 482 kts 150°
2026-05-04 08:05 47.74818 14.71243 41088 ft 482 kts 150°
2026-05-04 08:05 47.69059 14.76366 41093 ft 483 kts 150°
2026-05-04 08:06 47.63293 14.81482 41097 ft 483 kts 150°
2026-05-04 08:06 47.57514 14.86595 41101 ft 484 kts 150°
2026-05-04 08:08 47.34175 15.07114 41109 ft 486 kts 150°
2026-05-04 08:11 47.08934 15.29066 41112 ft 487 kts 150°
2026-05-04 08:11 47.00169 15.36631 41112 ft 487 kts 150°
2026-05-04 08:12 46.94316 15.41667 41112 ft 488 kts 150°
2026-05-04 08:12 46.88412 15.46734 41111 ft 489 kts 150°
2026-05-04 08:13 46.82550 15.51752 41109 ft 489 kts 150°
2026-05-04 08:13 46.76710 15.56738 41103 ft 489 kts 150°
2026-05-04 08:14 46.70829 15.61747 41098 ft 490 kts 150°
2026-05-04 08:16 46.47221 15.81725 41085 ft 492 kts 150°
2026-05-04 08:16 46.41302 15.86702 41088 ft 493 kts 150°
2026-05-04 08:17 46.35350 15.91694 41094 ft 493 kts 150°
2026-05-04 08:17 46.29414 15.96661 41102 ft 493 kts 150°
2026-05-04 08:19 46.05604 16.16455 41125 ft 494 kts 150°
2026-05-04 08:20 45.99641 16.21381 41131 ft 494 kts 150°
2026-05-04 08:20 45.93684 16.26290 41135 ft 494 kts 150°
2026-05-04 08:21 45.87712 16.31199 41141 ft 494 kts 150°
2026-05-04 08:21 45.81748 16.36089 41143 ft 494 kts 150°
2026-05-04 08:22 45.75775 16.40974 41143 ft 494 kts 150°
2026-05-04 08:24 45.51814 16.60451 41148 ft 496 kts 150°
2026-05-04 08:24 45.45805 16.65305 41150 ft 497 kts 150°
2026-05-04 08:25 45.39791 16.70152 41153 ft 497 kts 150°
2026-05-04 08:25 45.33759 16.75001 41156 ft 497 kts 150°
2026-05-04 08:27 45.09559 16.94334 41168 ft 499 kts 150°
2026-05-04 08:28 45.03498 16.99146 41169 ft 499 kts 150°
2026-05-04 08:28 44.97480 17.03913 41170 ft 500 kts 150°
2026-05-04 08:29 44.91407 17.08711 41171 ft 500 kts 150°
2026-05-04 08:31 44.67075 17.27820 41172 ft 502 kts 150°
2026-05-04 08:33 44.42607 17.46850 41179 ft 504 kts 150°
2026-05-04 08:35 44.18026 17.65784 41186 ft 505 kts 150°
2026-05-04 08:35 44.11835 17.70524 41188 ft 505 kts 150°
2026-05-04 08:37 43.90216 17.86987 41195 ft 506 kts 150°
2026-05-04 08:38 43.84044 17.91662 41197 ft 506 kts 150°
2026-05-04 08:38 43.77850 17.96343 41199 ft 506 kts 150°
2026-05-04 08:40 43.53009 18.15003 41200 ft 507 kts 151°
2026-05-04 08:41 43.46805 18.19636 41200 ft 508 kts 151°
2026-05-04 08:41 43.40596 18.24262 41200 ft 508 kts 151°
2026-05-04 08:42 43.34383 18.28880 41200 ft 508 kts 151°
2026-05-04 08:42 43.28110 18.33531 41199 ft 509 kts 151°
2026-05-04 08:43 43.22935 18.37360 41199 ft 509 kts 151°
2026-05-04 08:43 43.16696 18.41967 41199 ft 510 kts 151°
2026-05-04 08:44 43.10527 18.46511 41199 ft 510 kts 151°
2026-05-04 08:46 42.85422 18.64896 41200 ft 511 kts 151°
2026-05-04 08:46 42.79139 18.69471 41200 ft 512 kts 151°
2026-05-04 08:47 42.72798 18.74078 41200 ft 512 kts 151°
2026-05-04 08:47 42.66508 18.78636 41201 ft 512 kts 151°
2026-05-04 08:48 42.60222 18.83181 41201 ft 512 kts 151°
2026-05-04 08:48 42.53930 18.87720 41201 ft 512 kts 151°
2026-05-04 08:49 42.47631 18.92255 41201 ft 513 kts 151°
2026-05-04 08:50 42.25533 19.08079 41200 ft 514 kts 151°
2026-05-04 08:51 42.19211 19.12583 41200 ft 514 kts 151°
2026-05-04 08:51 42.12892 19.17075 41200 ft 514 kts 151°
2026-05-04 08:52 42.06563 19.21563 41200 ft 514 kts 151°
2026-05-04 08:52 42.00274 19.26013 41200 ft 514 kts 151°
2026-05-04 08:54 41.74781 19.43952 41201 ft 517 kts 151°
2026-05-04 08:55 41.68406 19.48414 41200 ft 517 kts 151°
2026-05-04 08:55 41.62044 19.52856 41200 ft 517 kts 151°
2026-05-04 09:01 40.94812 19.99216 41199 ft 521 kts 152°
2026-05-04 09:01 40.88373 20.03603 41199 ft 521 kts 152°
2026-05-04 09:02 40.81949 20.07970 41198 ft 521 kts 152°